Find Local Weather

World > North America > United States > New Jersey

Minotola, New Jersey Regional Weather

Lat: 39.52N, Lon: 74.95W
Wx Zone: NJZ022
Feedback

Minotola, NJ Regional Weather

Expires:201905270100;;515108
ASUS41 KOKX 270005
RWROKX

Regional Weather Roundup
National Weather Service New York NY
800 PM EDT SUN MAY 26 2019

Note: "FAIR" indicates few or no clouds below 12,000 feet with no
significant weather and/or obstructions to visibility.


NJZ001-105-106-008-010-013-015-019>022-104-270100-
New Jersey
  
CITY           SKY/WX    TMP DP  RH WIND       PRES   REMARKS
Newark/Liberty MOCLDY    74  68  81 W3        29.87S                  
Teterboro      FAIR      74  64  71 CALM      29.86S                  
Caldwell       FAIR      75  67  76 CALM      29.87F                  
Somerville     FAIR      69  68  96 CALM      29.87R                  
Linden         FAIR      72  68  87 CALM      29.88R                  
Perth Amboy      N/A     72 N/A N/A W2          N/A                   
Sussex         FAIR      69  64  84 CALM      29.90S                  
Andover          N/A     69  66  90 CALM      29.90S                  
Trenton        FAIR      74  68  81 W6        29.88S                  
Millville      FAIR      78  70  76 CALM      29.90S                  
Atlantic City  FAIR      82  69  64 SW7       29.89S                  
Wrightstown    FAIR      74  66  75 W5        29.87                   
Toms River     FAIR      76  70  82 W5        29.89F                  
Belmar         FAIR      77  65  66 W5        29.90R                  
$$
 

SKY/WX - Weather  TMP - Temperature  DP - Dew Point  RH - Relative Humidity
WIND - Wind Direction/Speed PRES - Barometric Pressure VSB - Visibility
WCI - Wind Chill Index E13G22 Wind - East Wind 13 mph/Gusts of 22 mph